Location: Csohesd
(46.2500°N, 22.6167°E)
Time: 04:43:47
(UTC+00:00)

SL-16 R/B - Pass Details

Date: 21 October 2021
Orbit: 842 x 846 km, 71.0° (Epoch: 30 November)

Event Time Altitude Azimuth Distance (km) Brightness Sun altitude
Rises 18:36:41 0° 240° (WSW) 3,393 5.9 -32.2°
Reaches altitude 10° 18:39:27 10° 251° (WSW) 2,462 5.2 -32.7°
Maximum altitude 18:44:17 28° 310° (NW) 1,526 4.0 -33.5°
Enters shadow 18:48:59 11° 8° (N) 2,422 4.7 -34.2°
